This is the latest recevied weather packets stored in our database for station/object N4TLC. If no packets are shown the sender has not sent any weather packets the latest 10 day(s).
| Time | Temp. | Humidity | Pressure | Rain* | Wind** | Luminosity | Snow |
|---|---|---|---|---|---|---|---|
| 1777929611 | 26.67° C | 29% | 1015.3 hPa | 0 mm | - | 502 W/m² | - |
| 1777929308 | 26.67° C | 29% | 1015.1 hPa | 0 mm | - | 519 W/m² | - |
| 1777929005 | 26.67° C | 28% | 1015.3 hPa | 0 mm | - | 539 W/m² | - |
| 1777928702 | 26.67° C | 29% | 1015.4 hPa | 0 mm | - | 561 W/m² | - |
| 1777928398 | 26.67° C | 29% | 1015.2 hPa | 0 mm | - | 581 W/m² | - |
| 1777928096 | 26.67° C | 29% | 1015.2 hPa | 0 mm | - | 601 W/m² | - |
| 1777927794 | 26.11° C | 30% | 1015.4 hPa | 0 mm | - | 617 W/m² | - |
| 1777927492 | 26.11° C | 30% | 1015.4 hPa | 0 mm | - | 637 W/m² | - |
| 1777927191 | 26.67° C | 30% | 1015.3 hPa | 0 mm | - | 657 W/m² | - |
| 1777926889 | 26.67° C | 30% | 1015.4 hPa | 0 mm | - | 674 W/m² | - |
| 1777926584 | 26.11° C | 31% | 1015.4 hPa | 0 mm | - | 688 W/m² | - |
| 1777926281 | 26.67° C | 30% | 1015.4 hPa | 0 mm | - | 700 W/m² | - |
| 1777925978 | 26.11° C | 31% | 1015.5 hPa | 0 mm | - | 720 W/m² | - |
| 1777925675 | 26.11° C | 31% | 1015.6 hPa | 0 mm | - | 739 W/m² | - |
| 1777925373 | 25.56° C | 30% | 1015.8 hPa | 0 mm | - | 757 W/m² | - |
| 1777925069 | 26.11° C | 29% | 1015.8 hPa | 0 mm | - | 776 W/m² | - |
| 1777924766 | 26.11° C | 32% | 1015.8 hPa | 0 mm | - | 790 W/m² | - |
| 1777924462 | 26.11° C | 30% | 1015.8 hPa | 0 mm | - | 802 W/m² | - |
| 1777924158 | 26.11° C | 31% | 1016 hPa | 0 mm | - | 821 W/m² | - |
| 1777923854 | 26.11° C | 31% | 1016 hPa | 0 mm | - | 834 W/m² | - |
| 1777923551 | 25.56° C | 31% | 1016 hPa | 0 mm | - | 847 W/m² | - |
| 1777923248 | 25.56° C | 33% | 1016.2 hPa | 0 mm | - | 863 W/m² | - |
| 1777922947 | 25.56° C | 32% | 1016.1 hPa | 0 mm | - | 876 W/m² | - |
| 1777922644 | 25.56° C | 32% | 1016.3 hPa | 0 mm | - | 886 W/m² | - |
| 1777922342 | 25.56° C | 32% | 1016.2 hPa | 0 mm | - | 902 W/m² | - |
* Rain latest hour (hover to see other rain measurements)
** Current wind speed in m/s (hover to see current wind gust speed)